TimeEST,TemperatureF,Dew PointF,Humidity,Sea Level PressureIn,VisibilityMPH,Wind Direction,Wind SpeedMPH,Gust SpeedMPH,PrecipitationIn,Events,Conditions,WindDirDegrees,DateUTC
12:53 AM,48.9,48.0,97,29.99,6.0,West,6.9,-,N/A,,Overcast,270,2012-12-09 05:53:00
1:14 AM,48.2,48.2,100,29.99,6.0,West,10.4,-,N/A,,Overcast,260,2012-12-09 06:14:00
1:53 AM,48.9,48.0,97,30.01,6.0,West,9.2,-,N/A,,Overcast,260,2012-12-09 06:53:00
2:53 AM,48.9,48.0,97,30.03,4.0,West,10.4,-,N/A,,Overcast,260,2012-12-09 07:53:00
3:53 AM,48.9,48.0,97,30.05,4.0,West,10.4,-,N/A,,Overcast,280,2012-12-09 08:53:00
4:53 AM,48.9,48.0,97,30.08,3.0,WNW,9.2,-,N/A,,Overcast,290,2012-12-09 09:53:00
5:53 AM,48.0,48.0,100,30.11,3.0,WNW,6.9,-,N/A,,Overcast,290,2012-12-09 10:53:00
6:53 AM,46.0,46.0,100,30.14,5.0,WNW,6.9,-,N/A,,Partly Cloudy,300,2012-12-09 11:53:00
7:53 AM,46.9,46.0,97,30.17,7.0,WNW,8.1,-,N/A,,Mostly Cloudy,300,2012-12-09 12:53:00
8:53 AM,48.9,45.0,86,30.20,10.0,NNW,11.5,-,N/A,,Mostly Cloudy,330,2012-12-09 13:53:00
9:53 AM,48.9,43.0,80,30.22,10.0,North,12.7,21.9,N/A,,Clear,350,2012-12-09 14:53:00
10:53 AM,48.9,41.0,74,30.21,10.0,North,17.3,23.0,N/A,,Clear,360,2012-12-09 15:53:00
11:53 AM,50.0,39.9,68,30.21,10.0,North,18.4,-,N/A,,Clear,360,2012-12-09 16:53:00
12:53 PM,48.0,37.9,68,30.21,10.0,North,16.1,24.2,N/A,,Partly Cloudy,360,2012-12-09 17:53:00
1:53 PM,48.0,36.0,63,30.22,10.0,NNE,16.1,-,N/A,,Scattered Clouds,20,2012-12-09 18:53:00
2:53 PM,46.9,39.0,74,30.25,10.0,NNE,8.1,-,N/A,,Mostly Cloudy,30,2012-12-09 19:53:00
3:53 PM,46.9,39.9,77,30.25,10.0,ENE,6.9,-,N/A,,Overcast,70,2012-12-09 20:53:00
4:53 PM,46.9,41.0,80,30.27,10.0,ENE,6.9,-,0.00,Rain,Light Rain,70,2012-12-09 21:53:00
5:53 PM,45.0,39.9,82,30.27,10.0,East,6.9,-,0.00,Rain,Light Rain,80,2012-12-09 22:53:00
6:53 PM,45.0,41.0,86,30.26,10.0,East,8.1,-,0.01,Rain,Light Rain,80,2012-12-09 23:53:00
7:53 PM,45.0,42.1,90,30.26,10.0,East,9.2,-,0.02,Rain,Light Rain,90,2012-12-10 00:53:00
8:53 PM,46.0,42.1,86,30.25,10.0,ENE,8.1,-,0.00,,Overcast,70,2012-12-10 01:53:00
9:53 PM,46.0,43.0,89,30.22,10.0,East,11.5,-,0.01,Rain,Light Rain,100,2012-12-10 02:53:00
10:53 PM,46.0,43.0,89,30.18,10.0,ESE,17.3,-,0.00,Rain,Light Rain,120,2012-12-10 03:53:00
11:42 PM,46.4,44.6,93,30.15,5.0,ESE,18.4,26.5,0.03,Rain,Rain,110,2012-12-10 04:42:00
11:53 PM,46.9,45.0,93,30.14,8.0,ESE,18.4,25.3,0.03,Rain,Light Rain,110,2012-12-10 04:53:00